Дата Пункты Температура Давл., мм. Влажн., % Ветер Погодные явления
Воздуха Воды Направл. Скорость
03.11.18 08:00 Одесса 10.0 14.0 769 89 Пн 0 20 ГОДИН
03.11.18 05:00 Одесса 11.0 13.0 769 85 Пн 0 17 ГОДИН
03.11.18 02:00 Одесса 11.0 13.0 769 88 Пн-С 2 14 ГОДИН
03.11.18 11:00 Одесса 11.0 13.0 770 89 Пн-С 2 11 ГОДИН
03.11.18 08:00 Одесса 10.0 13.0 770 88 Пн-С 4 08 ГОДИН
03.11.18 05:00 Одесса 10.0 13.0 770 88 Пн-С 3 05 ГОДИН
02.11.18 11:00 Одесса 11.0 14.0 770 80 С 4 23 ГОДИНИ
02.11.18 08:00 Одесса 11.0 14.0 770 82 С 7 20 ГОДИН
02.11.18 05:00 Одесса 12.0 14.0 770 82 С 3 17 ГОДИН
02.11.18 02:00 Одесса 11.0 14.0 770 83 С 2 14 ГОДИН
02.11.18 11:00 Одесса 11.0 15.0 771 84 С 2 11 ГОДИН
02.11.18 08:00 Одесса 11.0 15.0 771 85 С 6 08 ГОДИН
02.11.18 05:00 Одесса 12.0 15.0 770 84 С 6 05 ГОДИН
02.11.18 02:00 Одесса 12.0 15.0 771 85 С 6 02 ГОДИНИ
01.11.18 11:00 Одесса 11.0 15.0 771 84 Пд-С 5 23 ГОДИНИ
01.11.18 08:00 Одесса 12.0 15.0 772 83 С 6 20 ГОДИН
01.11.18 05:00 Одесса 12.0 15.0 771 84 С 4 17 ГОДИН
01.11.18 02:00 Одесса 12.0 15.0 771 83 С 4 14 ГОДИН
01.11.18 11:00 Одесса 12.0 15.0 771 85 С 6 11 ГОДИН
01.11.18 08:00 Одесса 13.0 15.0 771 84 С 6 08 ГОДИН
Количество строк
1 2 3 4 5 6 7 8 9 10
Page 6 of 426